Showing default

REFLECTOR, 27005

Orbit data source: Space-Track

REFLECTOR, 27005 is a Commonwealth of Independent States-origin payload satellite in SSO that was launched on Mon, 10 Dec 2001 UTC via a ZENIT-2 launch vehicle from the Tyuratam Missile And Space Complex (TTMTR). Payload-class satellites include a variety of spacecraft equipped with specific instruments for various scientific and technological missions. These include communications satellites like Starlink; space stations such as the ISS; scientific satellites like the Hubble; Earth observation satellites from companies like Planet Labs, Umbra, and HawkEye 360; GPS; miniature CubeSats for education and research; and military/defense satellites.

Loading next visibility...
Identifier
27005, 2001-056E
Orbit
SSO
Country
Flag of CISCIS
Related business
Manufacturer
NIIPP
Mission
Defense Calibration
Bus & Motor
REFLEKTOR, Unknown motor
Mass
8 kg wet, 8 kg dry
Launch date (UTC)
2001-12-10 (24 years ago)
Launch vehicle
ZENIT-2
Launch site
Tyuratam Missile And Space Complex (TTMTR)
Object type
Payload
Rocket body
Debris
Shape & HBR
Box + 4 Fin, 0.7 m
Radar Cross Section
1.680 m², Medium (>0.1 m² and < 1m²)

Expand to show TLE details & history
Last TLE update: 13 hours ago

TLE from 13 hours ago
0 REFLECTOR
1 27005U 01056E   25310.29507965  .00000101  00000-0  16395-3 0  9999
2 27005  99.7433 112.2018 0017938 328.9023  31.1060 13.71383006195986
Epoch: 2025-11-06T07:04Z
TLE epoch observation values (Epoch: 2025-11-06T07:04:54.881Z)
Latitude
-0.00005°
Longitude
-39.78231°
Altitude
986.104 km
Speed
7.364 km/s
True Right ascension
07h 28m 48s
True Declination
0° 00' 00"
Sunlit
Object was in daylight at epoch
Visualization orbit readout
Latitude
Unknown
Longitude
Unknown
Altitude
Unknown
Speed
Unknown
Apparent Right ascension
Unknown
Apparent Declination
Unknown
Sunlit
N/A
Visualization observer readout
Local Sidereal Time
15:54:18
Azimuth
Unknown
Elevation
Unknown
Doppler factor
Unknown
Orbital elements
Apogee altitude
1,005.105 km
Perigee altitude
978.665 km
Semi-major axis
7,370.022 km
Eccentricity
0.00179
Inclination
99.7433°
RAAN
112.2018°
Arg. of periapsis
328.9023°
True anomaly
31.2124°
Mean anomaly
31.106°
Eccentric anomaly
31.15918°
Mean motion
3.43036 °/min
Orbital period
104.95 mins
BSTAR
0.00016395
Loading maneuver chart data...
Computing Atmospheric mass density...
Loading historical data...
Loading historical data...
Loading historical data...
Loading historical data...
Loading historical data...
Loading historical data...
Loading historical data...

Documentation

Showing up to 5 results
|